Location: Cactus School
(34.5700°N, 118.0931°W)
Time: 07:51:32
(UTC-07:00)

Vanguard 2 - Pass Details

Date: 25 April 2024
Orbit: 553 x 2914 km, 32.9° (Epoch: 22 May)

Event Time Altitude Azimuth Distance (km) Brightness Sun altitude
Exits shadow 23:35:23 22° 89° (E) 4,250 11.0 -38.6°
Drops below altitude 10° 23:40:15 10° 80° (E) 5,418 11.7 -39.0°
Sets 23:45:15 0° 75° (ENE) 6,628 12.3 -39.3°
